#timestamp,LO_Frequency,Hit,StdDev 
1614715215.2,286047000.4,N
1614715235.9,286047000.3,N
1614715255.7,286046998.2,N
1614715275.6,286046999.6,N
1614715295.4,286046999.5,N
1614715315.2,286046996.6,N
1614715335.1,286047000.3,N
1614715336.0,286047000.3,N
1614715355.8,286047000.8,N
1614715375.7,286047000.3,N
1614715395.5,286047000.3,N
1614715415.3,286046998.9,N
1614715435.2,286046996.5,N
1614715455.0,286046996.7,N
1614715455.9,286046996.7,N
1614715475.7,286046999.1,N
1614715495.6,286046998.0,N
1614715515.4,286046996.1,N
1614715535.3,286046993.5,Y
1614715555.1,286046997.0,P
1614715556.0,286046997.0,N
1614715575.8,286046999.5,N
1614715595.7,286046999.5,N
1614715615.5,286046993.4,Y
1614715635.4,286046998.0,P
1614715655.2,286046999.6,N
1614715675.0,286046997.1,P
1614715675.9,286046997.1,Y
1614715695.8,286046997.4,P
1614715715.6,286046995.5,P
1614715735.4,286046993.4,P
1614715755.3,286046994.1,Y
1614715775.1,286046997.8,P
1614715795.9,286046999.4,N
1614715815.7,286046999.1,N
1614715835.5,286046997.7,N
1614715855.4,286046996.2,Y
1614715875.2,286046998.2,P
1614715895.1,286047000.5,P
1614715896.0,286047000.5,N
1614715915.8,286046997.0,N
1614715935.6,286046998.8,N
1614715955.5,286046997.0,N
1614715975.3,286047000.6,N
1614715995.1,286047000.8,N
1614716015.9,286046998.3,N
1614716035.7,286047000.8,N
1614716055.6,286046996.5,N
1614716075.4,286046999.5,N
1614716095.2,286046998.3,N
1614716115.1,286046998.7,N
1614716116.0,286046998.7,N
1614716135.8,286047000.3,N
1614716155.6,286046996.9,N
1614716175.5,286046998.4,N
1614716195.3,286046999.0,N
1614716215.1,286046998.4,N
1614716235.9,286046999.4,N
1614716255.7,286047000.7,N
1614716275.6,286047000.4,N
1614716295.4,286046999.4,N
1614716315.2,286046996.8,N
1614716335.1,286046995.7,Y
1614716336.0,286046995.7,P
1614716355.8,286046995.6,N
1614716375.7,286046997.2,N
1614716395.5,286046997.0,N
1614716415.3,286046998.7,N
1614716435.2,286046998.9,N
1614716455.0,286046998.4,N
1614716455.9,286046998.4,N
1614716475.8,286046998.5,N
1614716495.6,286047001.2,N
1614716515.4,286046998.9,N
1614716535.3,286046999.8,N
1614716555.1,286046999.0,N
1614716575.8,286046998.9,N
1614716595.7,286046999.4,N
1614716615.5,286047000.9,N
1614716635.4,286047002.6,N
1614716655.2,286047000.3,N
1614716675.0,286047004.1,N
1614716675.9,286047004.1,N
1614716695.8,286047002.0,N
1614716715.6,286047002.2,N
1614716735.4,286047001.7,N
1614716755.3,286047001.0,N
1614716775.1,286046999.8,N
1614716795.9,286047000.8,N
1614716815.7,286046998.9,N
1614716835.5,286046998.8,N
1614716855.4,286047000.7,N
1614716875.2,286047001.1,N
1614716895.0,286047000.5,N
1614716895.9,286047000.5,N
1614716915.8,286047000.9,N
1614716935.6,286047000.1,N
1614716955.5,286047002.3,N
1614716975.3,286047004.3,N
1614716995.1,286047001.0,N
1614717015.9,286046999.1,N
1614717035.7,286047000.4,N
1614717055.5,286047000.7,N
1614717075.4,286047000.6,N
1614717095.2,286047002.2,N
1614717115.1,286047002.2,N
1614717116.0,286047002.2,N
1614717135.8,286047007.2,Y
1614717155.6,286047002.9,P
1614717175.5,286047001.7,N
1614717195.3,286046998.1,N
1614717215.2,286047001.1,N
1614717235.9,286047000.6,N
1614717255.7,286046998.5,N
1614717275.6,286047001.2,N
1614717295.4,286047000.2,N
1614717315.2,286047001.5,N
1614717335.1,286046999.7,N
1614717336.0,286046999.7,N
1614717355.8,286047004.0,Y
1614717375.7,286047002.1,P
1614717395.5,286047001.8,N
1614717415.3,286047004.4,P
1614717435.2,286047001.9,N
1614717455.0,286047003.9,Y
1614717455.9,286047003.9,P
1614717475.7,286047000.1,N
1614717495.6,286047000.7,N
1614717515.4,286046999.3,N
1614717535.3,286046997.1,N
1614717555.1,286047001.0,N
1614717556.0,286047001.0,N
1614717575.8,286047000.7,N
1614717595.7,286046998.5,N
1614717615.5,286046999.5,N
1614717635.3,286047000.7,N
1614717655.2,286046997.3,N
1614717675.0,286046996.9,N
1614717675.9,286046996.9,N
1614717695.8,286046996.9,N
1614717715.6,286046998.4,N
1614717735.4,286046996.6,N
1614717755.3,286046997.4,N
1614717775.1,286046998.4,N
1614717795.9,286046998.8,N
1614717815.7,286046997.5,N
1614717835.5,286046997.8,N
1614717855.4,286046998.1,N
1614717875.2,286046997.2,N
1614717895.0,286047001.9,N
1614717895.9,286047001.9,N
1614717915.8,286046998.6,N
1614717935.6,286046998.9,N
1614717955.4,286046996.5,N
1614717975.3,286047000.1,N
1614717995.1,286047000.4,N
1614718015.9,286047001.9,N
1614718035.7,286047004.0,N
1614718055.5,286047001.6,N
1614718075.4,286047004.1,N
1614718095.2,286047009.2,Y
1614718115.1,286047009.5,P
1614718116.0,286047009.5,N
1614718135.8,286047007.9,N
1614718155.6,286047007.1,N
1614718175.5,286047006.7,N
1614718195.3,286047006.2,N
1614718215.1,286047007.5,N
1614718235.9,286047009.1,Y
1614718255.7,286047001.4,P
1614718305.6,286047003.2,E
1614718315.5,286047004.0,N
1614718335.3,286047000.6,P
1614718355.2,286047002.6,N
1614718375.9,286047002.5,N
1614718395.7,286046998.8,N
1614718415.6,286046996.5,N
1614718435.4,286047000.8,N
1614718455.3,286047000.3,N
1614718475.1,286046998.8,N
1614718476.0,286046998.8,N
1614718495.8,286046999.0,N
1614718515.7,286046998.8,N
1614718535.5,286046998.9,N
1614718555.3,286047001.1,N
1614718575.2,286046998.6,N
1614718595.0,286046996.7,N
1614718595.9,286046996.7,N
1614718615.8,286047000.6,N
1614718635.6,286046998.8,N
1614718655.4,286046999.3,N
1614718675.3,286046998.1,N
1614718695.1,286046998.4,N
1614718715.8,286046998.2,N
1614718735.7,286046996.7,N
1614718755.5,286047002.8,N
1614718775.4,286047003.8,N
1614718795.2,286047000.2,N
